STARLINK-31908, 59901

Orbit data source: Space-Track

STARLINK-31908, 59901 is a payload satellite owned by SpaceX/Seattle (US) in LEO that was launched on Tue, 28 May 2024 UTC via an FALCON 9 launch vehicle from the Air Force Eastern Test Range (AFETR). Payload-class satellites include a variety of spacecraft equipped with specific instruments for various scientific and technological missions. These include communications satellites like Starlink; space stations such as the ISS; scientific satellites like the Hubble; Earth observation satellites from companies like Planet Labs, Umbra, and HawkEye 360; GPS; miniature CubeSats for education and research; and military/defense satellites.

Loading next visibility...
Identifier
59901, 2024-100S
Orbit
LEO
Country
Flag of USUS
Related business
Manufacturer
SpaceX/Seattle
Mission
Operational Commercial Communications
Bus & Motor
STARLINK V2M, Unknown motor
Mass
730 kg wet, ~700 kg dry
Launch date (UTC)
2024-05-28 (2 years ago)
Launch vehicle
FALCON 9
Launch site
Air Force Eastern Test Range (AFETR)
Object type
Payload
Rocket body
Debris
Shape & HBR
Box + 2 Pan, 17.7 m
Radar Cross Section
33.884 m², Large (>1 m²)

Expand to show TLE details & history
Last TLE update: 1 day ago

TLE from 1 day ago
0 STARLINK-31908
1 59901U 24100S   26125.47986898 -.00000351  00000-0 -31992-5 0  9996
2 59901  43.0068 157.6352 0002316 284.6398  75.4197 15.27580519109914
Epoch: 2026-05-05T11:31Z
TLE epoch observation values (Epoch: 2026-05-05T11:31:00.679Z)
Latitude
-0.00003°
Longitude
121.52823°
Altitude
482.424 km
Speed
7.626 km/s
True Right ascension
10h 30m 32s
True Declination
0° 00' 00"
Sunlit
Object was in full shadow at epoch
Visualization orbit readout
Latitude
Unknown
Longitude
Unknown
Altitude
Unknown
Speed
Unknown
Apparent Right ascension
Unknown
Apparent Declination
Unknown
Sunlit
N/A
Visualization observer readout
Local Sidereal Time
01:08:38
Azimuth
Unknown
Elevation
Unknown
Doppler factor
Unknown
Orbital elements
Apogee altitude
486.581 km
Perigee altitude
483.402 km
Semi-major axis
6,863.129 km
Eccentricity
0.00023
Inclination
43.0068°
RAAN
157.6352°
Arg. of periapsis
284.6398°
True anomaly
75.44539°
Mean anomaly
75.4197°
Eccentric anomaly
75.43254°
Mean motion
3.81733 °/min
Orbital period
94.31 mins
BSTAR
-0.0000031992
Loading maneuver chart data...
Computing Atmospheric mass density...
Loading historical data...
Loading historical data...
Loading historical data...
Loading historical data...
Loading historical data...
Loading historical data...
Loading historical data...

Documentation

Showing up to 5 results
|